Location: Lac Echo
(45.9375°N, 75.4580°W)
Time: 23:29:48
(UTC-04:00)

Amateur Radio Satellites - All Passes

Search period start: 28 March 2017 22:59
Search period end: 29 March 2017 22:59
Location: Lac Echo, 45.9375°N, 75.4580°W

Satellite Date Start Highest point End Downlink Frequencies (MHz)
Time Altitude Azimuth
AO-85 28 Mar 23:05:23 23:07:42 14° 326° (NNW) 23:09:57 145.980
LO-87 28 Mar 23:11:35 23:15:11 89° 269° (W) 23:18:50 145.935 - 145.965
DX 1 28 Mar 23:30:04 23:31:48 12° 58° (ENE) 23:33:31 434.975-435.025
AIST 2D 28 Mar 23:42:13 23:44:52 20° 94° (E) 23:47:30 435.315
TIGRISAT 28 Mar 23:51:03 23:55:19 47° 289° (WNW) 23:59:27 435.000
BEESAT 3 28 Mar 23:54:00 23:57:16 24° 319° (NW) 00:00:35 437.485
NANOSAT C BR1 28 Mar 23:54:55 23:57:39 17° 91° (E) 00:00:22 145.865
50 SAT 28 Mar 23:55:17 23:58:05 23° 68° (ENE) 00:00:54 437.505
VELOX 1 28 Mar 23:58:24 00:02:39 48° 71° (ENE) 00:06:56 145.980
EO-79 29 Mar 00:00:45 00:04:00 21° 93° (E) 00:07:12 145.935-145.965
UNISAT 6 29 Mar 00:02:13 00:06:14 35° 292° (WNW) 00:10:09 437.425
PRISM 29 Mar 00:03:30 00:06:23 18° 297° (WNW) 00:09:16 437.425
UKube-1 29 Mar 00:03:31 00:06:29 18° 62° (ENE) 00:09:28 .
SO-50 29 Mar 00:10:20 00:14:14 29° 244° (WSW) 00:18:05 436.795
Tancredo 1 29 Mar 00:11:49 00:14:40 30° 8° (N) 00:17:33 437.200
BEESAT 2 29 Mar 00:14:51 00:18:27 32° 316° (NW) 00:22:06 435.950
FO-29 29 Mar 00:18:07 00:24:02 58° 291° (WNW) 00:29:21 435.910
SPROUT 29 Mar 00:23:15 00:27:33 75° 75° (ENE) 00:31:52 437.525
ISS 29 Mar 00:23:22 00:26:22 31° 9° (N) 00:29:23 437.550
POLYITAN 1 29 Mar 00:29:09 00:33:11 41° 98° (E) 00:37:08 437.675
QB50P2 29 Mar 00:33:50 00:37:59 50° 100° (E) 00:42:04 145.880/145.840
ESTCUBE 1 29 Mar 00:34:25 00:38:07 25° 266° (W) 00:41:50 437.505/2401.250
DUCHIFAT 1 29 Mar 00:42:00 00:46:06 46° 99° (E) 00:50:07 145.980
BUGSAT 1 29 Mar 00:48:22 00:51:24 19° 92° (E) 00:54:22 437.445
RS-15 29 Mar 00:57:10 01:01:26 13° 269° (W) 01:05:41 29.354- 29.394
DX 1 29 Mar 01:02:58 01:07:19 85° 256° (WSW) 01:11:44 434.975-435.025
O/OREOS (USA 219) 29 Mar 01:03:53 01:06:45 16° 48° (NE) 01:09:35 437.305
Oscar 19 29 Mar 01:07:00 01:08:34 11° 87° (E) 01:10:08 437.125/150
AIST 2D 29 Mar 01:15:07 01:18:07 27° 291° (WNW) 01:21:04 435.315
ITUPSAT 1 29 Mar 01:26:54 01:29:05 13° 57° (ENE) 01:31:16 437.325
50 SAT 29 Mar 01:28:16 01:31:04 23° 265° (W) 01:33:54 437.505
NANOSAT C BR1 29 Mar 01:29:34 01:33:39 49° 289° (WNW) 01:37:42 145.865
EO-79 29 Mar 01:35:57 01:39:55 39° 290° (WNW) 01:43:49 145.935-145.965
VELOX 1 29 Mar 01:36:17 01:39:22 18° 268° (W) 01:42:29 145.980
UKube-1 29 Mar 01:37:57 01:42:08 51° 260° (W) 01:46:23 .
Gurwin Techsat 1B 29 Mar 01:41:14 01:44:03 14° 88° (E) 01:46:51 435.225
Tancredo 1 29 Mar 01:47:55 01:51:07 81° 30° (NNE) 01:54:19 437.200
ISS 29 Mar 01:59:49 02:03:08 89° 14° (NNE) 02:06:26 437.550
SPROUT 29 Mar 02:02:32 02:03:58 11° 272° (W) 02:05:25 437.525
POLYITAN 1 29 Mar 02:05:31 02:08:42 21° 296° (WNW) 02:11:51 437.675
FO-29 29 Mar 02:06:19 02:07:40 11° 313° (NW) 02:08:59 435.910
QB50P2 29 Mar 02:10:32 02:13:24 18° 297° (WNW) 02:16:15 145.880/145.840
DUCHIFAT 1 29 Mar 02:18:30 02:21:26 19° 297° (WNW) 02:24:21 145.980
BUGSAT 1 29 Mar 02:23:00 02:26:57 41° 290° (WNW) 02:30:49 437.445
MOZHAYETS 4 29 Mar 02:37:54 02:41:33 24° 64° (ENE) 02:45:11
O/OREOS (USA 219) 29 Mar 02:42:07 02:46:45 79° 247° (WSW) 02:51:21 437.305
BEESAT 29 Mar 02:43:25 02:48:07 62° 72° (ENE) 02:52:51 436.000
Oscar 19 29 Mar 02:43:27 02:48:40 84° 104° (ESE) 02:53:51 437.125/150
AO-7 29 Mar 02:55:22 02:59:17 14° 85° (E) 03:03:11 .
ITAMSAT 1 29 Mar 02:59:26 03:01:23 12° 87° (E) 03:03:18 435.822/435.867
ITUPSAT 1 29 Mar 03:01:23 03:06:12 89° 66° (ENE) 03:11:01 437.325
Gurwin Techsat 1B 29 Mar 03:19:18 03:24:39 82° 286° (WNW) 03:29:58 435.225
Tancredo 1 29 Mar 03:24:48 03:26:53 16° 224° (SW) 03:28:58 437.200
KKS-1 29 Mar 03:36:26 03:39:51 22° 63° (ENE) 03:43:17 437.445
ISS 29 Mar 03:37:12 03:39:12 15° 225° (SW) 03:41:12 437.550
CUBESAT XI-V 29 Mar 03:38:01 03:41:04 18° 61° (ENE) 03:44:06 437.345
STARS 29 Mar 04:05:09 04:08:21 20° 62° (ENE) 04:11:34 437.465
AO-85 29 Mar 04:11:18 04:14:33 24° 41° (NE) 04:17:49 145.980
MOZHAYETS 4 29 Mar 04:14:09 04:18:29 41° 262° (W) 04:22:50
BEESAT 29 Mar 04:23:19 04:26:19 16° 270° (W) 04:29:19 436.000
Oscar 19 29 Mar 04:24:18 04:27:19 16° 303° (WNW) 04:30:19 437.125/150
ITAMSAT 1 29 Mar 04:36:21 04:41:36 88° 105° (ESE) 04:46:47 435.822/435.867
ITUPSAT 1 29 Mar 04:43:17 04:44:42 11° 273° (W) 04:46:05 437.325
AO-7 29 Mar 04:45:17 04:53:35 69° 106° (ESE) 05:01:50 .
BEESAT 3 29 Mar 04:54:00 04:55:43 12° 30° (NNE) 04:57:24 437.485
Gurwin Techsat 1B 29 Mar 05:01:08 05:03:46 14° 305° (NW) 05:06:25 435.225
M-CUBED/EXP-1 PRIME 29 Mar 05:06:04 05:08:40 17° 55° (NE) 05:11:23 437.505
KKS-1 29 Mar 05:11:52 05:16:08 44° 261° (W) 05:20:27 437.445
CUBESAT XI-V 29 Mar 05:13:28 05:17:59 59° 259° (W) 05:22:33 437.345
BEESAT 2 29 Mar 05:16:48 05:17:16 10° 27° (NNE) 05:17:45 435.950
STRAND 1 29 Mar 05:39:38 05:40:35 10° 53° (NE) 05:41:31 437.568
STARS 29 Mar 05:40:04 05:44:21 49° 260° (W) 05:48:41 437.465
AO-85 29 Mar 05:51:21 05:55:05 41° 240° (WSW) 05:58:53 145.980
LilacSat-2 29 Mar 06:08:31 06:10:11 12° 90° (E) 06:11:51 437.200
DOVE 4 29 Mar 06:13:38 06:18:08 27° 92° (E) 06:22:31 437.250
ITAMSAT 1 29 Mar 06:17:26 06:20:21 15° 304° (WNW) 06:23:15 435.822/435.867
NUDT-PHONESAT 29 Mar 06:19:01 06:20:36 12° 90° (E) 06:22:10 437.300
NO-84 29 Mar 06:25:21 06:27:58 33° 137° (SE) 06:30:36 435.350 FM
XW-2D 29 Mar 06:28:44 06:31:38 21° 94° (E) 06:34:30 145.860 - 145.880
KAITUO 1B 29 Mar 06:29:16 06:31:41 16° 92° (E) 06:34:06 145.475/437.950
BEESAT 3 29 Mar 06:30:09 06:34:09 59° 51° (NE) 06:38:06 437.485
XW-2B 29 Mar 06:34:38 06:37:42 23° 95° (E) 06:40:43 145.730 - 145.750
AO-7 29 Mar 06:38:43 06:45:48 33° 306° (NW) 06:52:52 .
M-CUBED/EXP-1 PRIME 29 Mar 06:38:57 06:42:39 52° 254° (WSW) 06:46:43 437.505
XW-2C 29 Mar 06:44:43 06:48:05 30° 96° (E) 06:51:25 145.795 - 145.815
YUBILEINY 29 Mar 06:44:51 06:52:00 30° 81° (E) 06:59:08 435.215
CUTE-I 29 Mar 06:46:31 06:51:20 33° 96° (E) 06:56:05 437.470
BEESAT 2 29 Mar 06:52:11 06:56:06 43° 48° (NE) 06:59:58 435.950
STRAND 1 29 Mar 07:13:41 07:18:46 64° 72° (ENE) 07:23:52 437.568
XW-2F 29 Mar 07:34:22 07:38:06 68° 285° (WNW) 07:41:48 145.980 - 146.000
HO-68 29 Mar 07:35:46 07:41:32 25° 92° (E) 07:47:17 435.675
LilacSat-2 29 Mar 07:41:06 07:44:48 52° 286° (WNW) 07:48:27 437.200
DOVE 4 29 Mar 07:50:55 07:55:57 45° 291° (WNW) 08:00:54 437.250
NUDT-PHONESAT 29 Mar 07:51:15 07:54:50 50° 287° (WNW) 07:58:23 437.300
SEEDS 29 Mar 07:54:19 07:57:05 17° 91° (E) 07:59:50 437.485
KAITUO 1B 29 Mar 08:02:26 08:05:52 37° 289° (WNW) 08:09:18 145.475/437.950
XW-2D 29 Mar 08:02:33 08:05:53 30° 291° (WNW) 08:09:11 145.860 - 145.880
NO-84 29 Mar 08:02:57 08:05:31 29° 335° (NNW) 08:08:05 435.350 FM
CUTE 1.7 + AOD 2 29 Mar 08:06:00 08:09:51 33° 96° (E) 08:13:41 437.475
XW-2B 29 Mar 08:08:40 08:11:52 27° 291° (WNW) 08:15:04 145.730 - 145.750
BEESAT 3 29 Mar 08:08:53 08:11:18 16° 249° (WSW) 08:13:43 437.485
XW-2C 29 Mar 08:19:15 08:22:08 21° 294° (WNW) 08:25:00 145.795 - 145.815
CUBEBUG 2 29 Mar 08:19:21 08:22:47 22° 92° (E) 08:26:07 437.445
CUTE-I 29 Mar 08:26:30 08:31:24 38° 294° (WNW) 08:36:16 437.470
BEESAT 2 29 Mar 08:30:27 08:33:38 22° 246° (WSW) 08:36:47 435.950
YUBILEINY 29 Mar 08:39:26 08:48:07 67° 283° (WNW) 08:56:49 435.215
AO-73 29 Mar 08:41:35 08:43:13 12° 88° (E) 08:44:50 145.935
FO-29 29 Mar 08:48:28 08:53:31 20° 55° (NE) 08:58:18 435.910
XW-2A 29 Mar 08:50:05 08:53:24 53° 286° (WNW) 08:56:41 145.665 - 145.685
STRAND 1 29 Mar 08:54:57 08:58:23 18° 270° (W) 09:01:52 437.568
AAUSAT CUBESAT 2 29 Mar 09:04:23 09:08:24 46° 99° (E) 09:12:25 437.432
PCSat 29 Mar 09:06:28 09:11:23 37° 112° (ESE) 09:16:20 145.827
UWE-3 29 Mar 09:15:12 09:19:25 51° 99° (E) 09:23:29 435.000/436.395/437.385
TIGRISAT 29 Mar 09:15:48 09:19:31 24° 65° (ENE) 09:23:12 435.000
PRISM 29 Mar 09:18:45 09:22:39 45° 71° (ENE) 09:26:35 437.425
HO-68 29 Mar 09:22:43 09:29:50 69° 291° (WNW) 09:36:56 435.675
UNISAT 6 29 Mar 09:26:25 09:30:32 31° 67° (ENE) 09:34:37 437.425
SEEDS 29 Mar 09:29:00 09:33:02 47° 288° (WNW) 09:37:03 437.485
Oscar 11 29 Mar 09:36:06 09:40:10 40° 98° (E) 09:44:13 .
NO-84 29 Mar 09:42:04 09:43:46 14° 357° (N) 09:45:30 435.350 FM
CUTE 1.7 + AOD 2 29 Mar 09:42:06 09:45:33 25° 293° (WNW) 09:49:00 437.475
ZACube-1 29 Mar 09:49:06 09:53:20 71° 102° (ESE) 09:57:28 437.345
CUBEBUG 2 29 Mar 09:55:29 09:59:34 38° 291° (WNW) 10:03:30 437.445
DELFI C3 29 Mar 09:57:30 10:00:33 21° 93° (E) 10:03:36 145.870
AO-73 29 Mar 10:15:46 10:19:57 66° 286° (WNW) 10:24:03 145.935
AIST 2D 29 Mar 10:20:15 10:21:45 12° 63° (ENE) 10:23:15 435.315
FO-29 29 Mar 10:29:53 10:37:39 80° 73° (ENE) 10:44:49 435.910
AAUSAT CUBESAT 2 29 Mar 10:40:41 10:43:32 18° 296° (WNW) 10:46:24 437.432
YUBILEINY 29 Mar 10:41:59 10:46:54 16° 307° (NW) 10:51:51 435.215
NANOSAT C BR1 29 Mar 10:49:19 10:52:15 18° 63° (ENE) 10:55:12 145.865
PCSat 29 Mar 10:49:40 10:54:45 40° 312° (NW) 10:59:53 145.827
TIGRISAT 29 Mar 10:51:30 10:55:58 43° 262° (W) 11:00:23 435.000
UWE-3 29 Mar 10:52:39 10:55:28 17° 298° (WNW) 10:58:14 435.000/436.395/437.385
EO-79 29 Mar 10:55:25 10:58:45 23° 65° (ENE) 11:02:06 145.935-145.965
PRISM 29 Mar 10:55:31 10:58:11 17° 268° (W) 11:00:52 437.425
RS-15 29 Mar 10:57:32 11:05:37 22° 97° (E) 11:13:50 29.354- 29.394
UNISAT 6 29 Mar 11:03:01 11:07:11 31° 264° (W) 11:11:20 437.425
HO-68 29 Mar 11:12:10 11:16:19 17° 312° (NW) 11:20:29 435.675
Oscar 11 29 Mar 11:12:45 11:16:04 22° 295° (WNW) 11:19:23 .
NO-84 29 Mar 11:19:47 11:22:08 21° 19° (NNE) 11:24:36 435.350 FM
POLYITAN 1 29 Mar 11:23:39 11:27:43 42° 70° (ENE) 11:31:46 437.675
ZACube-1 29 Mar 11:27:05 11:29:03 13° 300° (WNW) 11:30:59 437.345
QB50P2 29 Mar 11:28:19 11:32:28 51° 72° (ENE) 11:36:38 145.880/145.840
DELFI C3 29 Mar 11:31:47 11:35:26 35° 290° (WNW) 11:39:04 145.870
DUCHIFAT 1 29 Mar 11:35:43 11:39:47 47° 71° (ENE) 11:43:53 145.980
BUGSAT 1 29 Mar 11:40:18 11:43:25 20° 64° (ENE) 11:46:32 437.445
AIST 2D 29 Mar 11:51:06 11:54:33 51° 260° (W) 11:58:01 435.315
SPROUT 29 Mar 12:09:10 12:10:06 11° 87° (E) 12:11:01 437.525
LO-87 29 Mar 12:09:31 12:13:12 82° 102° (ESE) 12:16:50 145.935 - 145.965
FO-29 29 Mar 12:17:23 12:23:14 23° 270° (W) 12:28:49 435.910
ESTCUBE 1 29 Mar 12:23:14 12:27:42 55° 101° (E) 12:32:07 437.505/2401.250
NANOSAT C BR1 29 Mar 12:23:29 12:27:37 49° 260° (W) 12:31:47 145.865
Oscar 19 29 Mar 12:25:02 12:28:59 23° 62° (ENE) 12:32:57 437.125/150
EO-79 29 Mar 12:30:18 12:34:18 38° 262° (W) 12:38:20 145.935-145.965
PCSat 29 Mar 12:37:39 12:39:43 12° 335° (NNW) 12:41:48 145.827
50 SAT 29 Mar 12:49:55 12:52:25 18° 94° (E) 12:54:54 437.505
DX 1 29 Mar 12:50:06 12:52:26 14° 90° (E) 12:54:44 434.975-435.025
NO-84 29 Mar 12:56:54 12:59:58 81° 216° (SW) 13:03:15 435.350 FM
POLYITAN 1 29 Mar 13:00:31 13:03:40 20° 267° (W) 13:06:51 437.675
Gurwin Techsat 1B 29 Mar 13:03:58 13:08:33 30° 64° (ENE) 13:13:08 435.225
RS-15 29 Mar 13:03:58 13:15:58 77° 120° (ESE) 13:28:20 29.354- 29.394
QB50P2 29 Mar 13:05:48 13:08:33 17° 269° (W) 13:11:19 145.880/145.840
DUCHIFAT 1 29 Mar 13:12:49 13:15:43 18° 268° (W) 13:18:37 145.980
BUGSAT 1 29 Mar 13:14:25 13:18:29 44° 261° (W) 13:22:34 437.445
VELOX 1 29 Mar 13:21:58 13:26:26 70° 102° (ESE) 13:30:53 145.980
UKube-1 29 Mar 13:22:54 13:26:16 21° 94° (E) 13:29:36 .
SPROUT 29 Mar 13:42:15 13:46:35 79° 284° (WNW) 13:50:50 437.525
AO-7 29 Mar 13:56:08 14:03:00 30° 52° (NE) 14:09:51 .
ESTCUBE 1 29 Mar 14:01:01 14:04:05 18° 298° (WNW) 14:07:09 437.505/2401.250
Oscar 19 29 Mar 14:02:58 14:07:57 53° 260° (W) 14:13:00 437.125/150
ITAMSAT 1 29 Mar 14:18:36 14:22:51 26° 62° (ENE) 14:27:08 435.822/435.867
50 SAT 29 Mar 14:22:23 14:25:31 31° 290° (WNW) 14:28:39 437.505
DX 1 29 Mar 14:24:40 14:29:02 64° 288° (WNW) 14:33:22 434.975-435.025
SO-50 29 Mar 14:25:54 14:30:22 48° 120° (ESE) 14:34:48 436.795
BEESAT 29 Mar 14:42:49 14:44:57 13° 88° (E) 14:47:04 436.000
Gurwin Techsat 1B 29 Mar 14:43:20 14:48:20 41° 262° (W) 14:53:23 435.225
UKube-1 29 Mar 14:58:22 15:02:26 40° 291° (WNW) 15:06:29 .
VELOX 1 29 Mar 14:59:50 15:02:21 15° 300° (WNW) 15:04:51 145.980
ITUPSAT 1 29 Mar 15:00:17 15:03:38 19° 92° (E) 15:06:59 437.325
RS-15 29 Mar 15:18:03 15:29:38 46° 328° (NNW) 15:41:26 29.354- 29.394
AO-7 29 Mar 15:46:44 15:55:04 76° 253° (WSW) 16:03:25 .
ITAMSAT 1 29 Mar 15:57:01 16:02:03 48° 260° (W) 16:07:08 435.822/435.867
MOZHAYETS 4 29 Mar 16:06:23 16:10:37 37° 97° (E) 16:14:50
SO-50 29 Mar 16:07:01 16:11:02 28° 319° (NW) 16:15:01 436.795
PCSat 29 Mar 16:09:07 16:12:01 14° 29° (NNE) 16:14:54 145.827
BEESAT 29 Mar 16:18:32 16:23:19 78° 286° (WNW) 16:28:03 436.000
CUTE-I 29 Mar 16:34:59 16:36:47 12° 53° (NE) 16:38:35 437.470
ITUPSAT 1 29 Mar 16:37:09 16:41:48 54° 289° (WNW) 16:46:25 437.325
YUBILEINY 29 Mar 16:51:11 16:56:30 17° 54° (NE) 17:01:49 435.215
LilacSat-2 29 Mar 16:54:30 16:54:53 10° 60° (ENE) 16:55:17 437.200
O/OREOS (USA 219) 29 Mar 16:56:31 17:01:03 77° 112° (ESE) 17:05:38 437.305
KKS-1 29 Mar 17:00:19 17:04:14 28° 96° (E) 17:08:06 437.445
CUBESAT XI-V 29 Mar 17:07:35 17:11:37 28° 95° (E) 17:15:39 437.345
KAITUO 1B 29 Mar 17:12:45 17:14:21 12° 62° (ENE) 17:15:57 145.475/437.950
XW-2D 29 Mar 17:12:58 17:15:19 16° 64° (ENE) 17:17:40 145.860 - 145.880
XW-2B 29 Mar 17:18:44 17:21:19 18° 65° (ENE) 17:23:53 145.730 - 145.750
DOVE 4 29 Mar 17:21:06 17:25:23 32° 66° (ENE) 17:29:54 437.250
STARS 29 Mar 17:27:12 17:30:50 24° 95° (E) 17:34:26 437.465
XW-2C 29 Mar 17:28:34 17:31:35 22° 67° (ENE) 17:34:35 145.795 - 145.815
RS-15 29 Mar 17:35:36 17:46:15 32° 1° (N) 17:56:49 29.354- 29.394
MOZHAYETS 4 29 Mar 17:43:51 17:47:37 26° 295° (WNW) 17:51:22
AO-7 29 Mar 17:44:24 17:49:11 16° 273° (W) 17:54:00 .
PCSat 29 Mar 17:51:23 17:56:43 52° 52° (NE) 18:02:00 145.827
BEESAT 29 Mar 17:58:46 18:00:16 11° 305° (NW) 18:01:46 436.000
HO-68 29 Mar 18:07:37 18:13:18 27° 55° (NE) 18:19:00 435.675
CUTE-I 29 Mar 18:10:31 18:15:50 67° 72° (ENE) 18:21:12 437.470
XW-2F 29 Mar 18:17:10 18:20:56 78° 73° (ENE) 18:24:43 145.980 - 146.000
LilacSat-2 29 Mar 18:24:46 18:28:35 79° 256° (WSW) 18:32:25 437.200
NUDT-PHONESAT 29 Mar 18:32:24 18:36:09 83° 259° (WSW) 18:39:53 437.300
KKS-1 29 Mar 18:36:47 18:40:46 32° 293° (WNW) 18:44:45 437.445
O/OREOS (USA 219) 29 Mar 18:38:12 18:41:03 16° 313° (NW) 18:43:54 437.305
KAITUO 1B 29 Mar 18:44:14 18:47:55 58° 259° (W) 18:51:37 145.475/437.950
CUBESAT XI-V 29 Mar 18:44:49 18:49:01 34° 292° (WNW) 18:53:13 437.345
XW-2D 29 Mar 18:45:33 18:49:11 44° 261° (W) 18:52:50 145.860 - 145.880
YUBILEINY 29 Mar 18:46:25 18:55:08 71° 78° (ENE) 19:03:50 435.215
SEEDS 29 Mar 18:48:39 18:51:20 17° 63° (ENE) 18:54:00 437.485
XW-2B 29 Mar 18:51:40 18:55:14 39° 262° (W) 18:58:49 145.730 - 145.750
DOVE 4 29 Mar 18:58:40 19:03:01 34° 266° (W) 19:07:37 437.250
CUTE 1.7 + AOD 2 29 Mar 19:00:53 19:04:37 32° 69° (ENE) 19:08:22 437.475
XW-2C 29 Mar 19:02:17 19:05:39 29° 264° (W) 19:09:01 145.795 - 145.815
STARS 29 Mar 19:03:12 19:07:15 36° 292° (WNW) 19:11:17 437.465
CUBEBUG 2 29 Mar 19:19:08 19:23:07 28° 67° (ENE) 19:27:05 437.445
STRAND 1 29 Mar 19:22:44 19:26:10 18° 90° (E) 19:29:34 437.568
XW-2A 29 Mar 19:23:14 19:26:39 69° 76° (ENE) 19:30:06 145.665 - 145.685
PCSat 29 Mar 19:35:19 19:39:49 27° 251° (WSW) 19:44:18 145.827
AO-73 29 Mar 19:38:58 19:41:34 15° 61° (ENE) 19:44:09 145.935
M-CUBED/EXP-1 PRIME 29 Mar 19:48:47 19:53:28 76° 108° (ESE) 19:58:08 437.505
RS-15 29 Mar 19:50:51 20:02:45 48° 34° (NE) 20:14:12 29.354- 29.394
CUTE-I 29 Mar 19:52:45 19:56:22 18° 270° (W) 20:00:02 437.470
HO-68 29 Mar 19:53:16 20:00:24 73° 255° (WSW) 20:07:36 435.675
AAUSAT CUBESAT 2 29 Mar 19:56:37 20:00:28 41° 71° (ENE) 20:04:20 437.432
Tancredo 1 29 Mar 20:01:25 20:04:19 34° 142° (SE) 20:07:14 437.200
AO-85 29 Mar 20:07:53 20:11:43 30° 117° (ESE) 20:15:22 145.980
UWE-3 29 Mar 20:13:43 20:18:16 57° 72° (ENE) 20:22:45 435.000/436.395/437.385
ISS 29 Mar 20:17:15 20:20:20 43° 145° (SE) 20:23:28 437.550
SEEDS 29 Mar 20:22:35 20:26:38 51° 261° (W) 20:30:42 437.485
Oscar 11 29 Mar 20:32:57 20:37:00 41° 70° (ENE) 20:41:03 .
CUTE 1.7 + AOD 2 29 Mar 20:37:00 20:40:29 25° 266° (W) 20:43:59 437.475
YUBILEINY 29 Mar 20:44:15 20:51:09 27° 280° (W) 20:58:03 435.215
DELFI C3 29 Mar 20:45:46 20:48:24 17° 64° (ENE) 20:51:01 145.870
ZACube-1 29 Mar 20:46:30 20:51:00 74° 75° (ENE) 20:55:27 437.345
CUBEBUG 2 29 Mar 20:55:12 20:59:35 37° 263° (W) 21:03:58 437.445
STRAND 1 29 Mar 21:00:44 21:05:48 64° 288° (WNW) 21:10:49 437.568
AO-73 29 Mar 21:12:50 21:17:19 66° 259° (W) 21:21:44 145.935
SO-50 29 Mar 21:15:09 21:18:13 18° 33° (NNE) 21:21:17 436.795
M-CUBED/EXP-1 PRIME 29 Mar 21:24:25 21:27:20 17° 305° (NW) 21:30:16 437.505
AAUSAT CUBESAT 2 29 Mar 21:33:12 21:36:07 19° 268° (W) 21:39:02 437.432
Tancredo 1 29 Mar 21:37:19 21:40:23 45° 341° (NNW) 21:43:27 437.200
HO-68 29 Mar 21:46:03 21:49:21 13° 275° (W) 21:52:39 435.675
AO-85 29 Mar 21:48:07 21:52:03 34° 314° (NW) 21:55:48 145.980
UWE-3 29 Mar 21:52:03 21:55:02 17° 269° (W) 21:58:01 435.000/436.395/437.385
ISS 29 Mar 21:53:43 21:56:51 42° 343° (NNW) 22:00:00 437.550
BEESAT 3 29 Mar 21:59:17 22:03:01 44° 120° (ESE) 22:06:50 437.485
RS-15 29 Mar 22:03:56 22:16:09 72° 241° (WSW) 22:27:48 29.354- 29.394
Oscar 11 29 Mar 22:10:05 22:13:18 20° 268° (W) 22:16:32 .
DELFI C3 29 Mar 22:19:08 22:22:52 43° 261° (W) 22:26:39 145.870
BEESAT 2 29 Mar 22:23:14 22:26:48 32° 117° (ESE) 22:30:23 435.950
ZACube-1 29 Mar 22:25:50 22:27:46 12° 272° (W) 22:29:41 437.345
PRISM 29 Mar 22:32:29 22:36:35 53° 101° (E) 22:40:40 437.425
TIGRISAT 29 Mar 22:40:40 22:44:37 32° 96° (E) 22:48:29 435.000
STRAND 1 29 Mar 22:43:19 22:43:58 10° 307° (NW) 22:44:37 437.568
LO-87 29 Mar 22:47:43 22:51:11 45° 73° (ENE) 22:54:41 145.935 - 145.965
VELOX 1 29 Mar 22:48:52 22:49:55 11° 57° (ENE) 22:50:57 145.980
